Weather History for Delaware, OH

Change the Weather History Date:

Thursday, July 18, 2013

  Actual Average Record
Temperature  
Mean Temperature 79 °F -  
Max Temperature 89 °F 85 °F 99 °F (1988)
Min Temperature 69 °F 60 °F 49 °F (1976)
Cooling Degree Days 14    
Growing Degree Days 29 (Base 50)    
Moisture  
Dew Point 70 °F    
Average Humidity 72    
Maximum Humidity 94    
Minimum Humidity 49    
Precipitation  
Precipitation 0.00 in - - ()
Sea Level Pressure  
Sea Level Pressure 30.15 in    
Wind  
Wind Speed 2 mph (WSW)    
Max Wind Speed 7 mph    
Max Gust Speed -    
Visibility 10 miles    
Events Thunderstorm    
Averages and records for this station are not official NWS values.
T = Trace of Precipitation, MM = Missing Value Source: NWS Daily Summary

Daily Weather History Graph

Daily Weather History Graph

Search for Another Location

Airport:

Trip Planner

Search our weather history database for the weather conditions in past years. The results will help you decide how hot, cold, wet, or windy it might be!

Date:

Astronomy

Jul. 18, 2013 Rise Set
Actual Time 6:18 AM EDT 8:58 PM EDT
Civil Twilight 5:46 AM EDT 9:30 PM EDT
Nautical Twilight 5:06 AM EDT 10:10 PM EDT
Astronomical Twilight 4:21 AM EDT 10:55 PM EDT
Moon 4:54 PM EDT (7/18) 2:07 AM EDT (7/18)
Length of Visible Light 15h 44m
Length of Day
14h 40m
Waxing Gibbous, 77% of the Moon is Illuminated
Jul 18
Waxing Gibbous
Jul 22
Full
Jul 29
Last Quarter
Aug 6
New
Aug 14
First Quarter

Hourly Weather History & Observations

Time (EDT) Temp. Heat Index Dew Point Humidity Pressure Visibility Wind Dir Wind Speed Gust Speed Precip Events Conditions
12:14 AM 75.2 °F - 69.8 °F 83% 30.23 in 10.0 mi Calm Calm - N/A   Clear
12:34 AM 73.4 °F - 69.8 °F 88% 30.23 in 10.0 mi Calm Calm - N/A   Clear
12:54 AM 73.4 °F - 69.8 °F 88% 30.22 in 10.0 mi Calm Calm - N/A   Clear
1:14 AM 73.4 °F - 69.8 °F 88% 30.22 in 10.0 mi West 3.5 mph - N/A   Scattered Clouds
1:34 AM 73.4 °F - 69.8 °F 88% 30.22 in 10.0 mi Calm Calm - N/A   Mostly Cloudy
1:54 AM 73.4 °F - 69.8 °F 88% 30.22 in 10.0 mi Calm Calm - N/A   Overcast
2:14 AM 73.4 °F - 69.8 °F 88% 30.22 in 10.0 mi Calm Calm - N/A   Mostly Cloudy
2:34 AM 73.4 °F - 69.8 °F 88% 30.21 in 10.0 mi Calm Calm - N/A   Scattered Clouds
2:54 AM 73.4 °F - 69.8 °F 88% 30.21 in 10.0 mi West 3.5 mph - N/A   Clear
3:14 AM 73.4 °F - 69.8 °F 88% 30.21 in 10.0 mi West 3.5 mph - N/A   Scattered Clouds
3:34 AM 71.6 °F - 69.8 °F 94% 30.20 in 10.0 mi West 3.5 mph - N/A   Mostly Cloudy
3:55 AM 73.4 °F - 68.0 °F 83% 30.20 in 7.0 mi West 3.5 mph - N/A   Scattered Clouds
4:14 AM 73.4 °F - 68.0 °F 83% 30.20 in 7.0 mi Calm Calm - N/A   Scattered Clouds
4:34 AM 71.6 °F - 68.0 °F 88% 30.19 in 7.0 mi WNW 3.5 mph - N/A   Scattered Clouds
4:54 AM 71.6 °F - 68.0 °F 88% 30.19 in 10.0 mi WNW 4.6 mph - N/A   Clear
5:14 AM 71.6 °F - 68.0 °F 88% 30.19 in 10.0 mi Calm Calm - N/A   Clear
5:34 AM 71.6 °F - 68.0 °F 88% 30.19 in 10.0 mi WNW 3.5 mph - N/A   Clear
5:55 AM 71.6 °F - 68.0 °F 88% 30.19 in 7.0 mi WNW 3.5 mph - N/A   Clear
6:14 AM 71.6 °F - 68.0 °F 88% 30.19 in 10.0 mi WNW 3.5 mph - N/A   Clear
6:34 AM 69.8 °F - 68.0 °F 94% 30.19 in 7.0 mi Calm Calm - N/A   Clear
6:55 AM 71.6 °F - 68.0 °F 88% 30.20 in 10.0 mi Calm Calm - N/A   Clear
7:14 AM 71.6 °F - 69.8 °F 94% 30.20 in 10.0 mi Calm Calm - N/A   Clear
7:34 AM 73.4 °F - 69.8 °F 88% 30.20 in 10.0 mi Calm Calm - N/A   Clear
7:55 AM 77.0 °F - 69.8 °F 78% 30.20 in 10.0 mi Calm Calm - N/A   Clear
8:14 AM 77.0 °F - 71.6 °F 83% 30.20 in 10.0 mi Calm Calm - N/A   Clear
8:34 AM 78.8 °F - 71.6 °F 78% 30.20 in 7.0 mi Calm Calm - N/A   Clear
8:54 AM 80.6 °F 83.9 °F 69.8 °F 70% 30.21 in 7.0 mi Calm Calm - N/A   Clear
9:14 AM 80.6 °F 83.9 °F 69.8 °F 70% 30.20 in 10.0 mi Calm Calm - N/A   Clear
9:34 AM 82.4 °F 86.3 °F 69.8 °F 66% 30.20 in 10.0 mi Calm Calm - N/A   Clear
9:54 AM 82.4 °F 87.2 °F 71.6 °F 70% 30.20 in 10.0 mi Calm Calm - N/A   Clear
10:14 AM 86.0 °F 91.8 °F 71.6 °F 62% 30.20 in 10.0 mi Calm Calm - N/A   Clear
10:34 AM 86.0 °F 91.8 °F 71.6 °F 62% 30.19 in 10.0 mi Calm Calm - N/A   Clear
10:54 AM 86.0 °F 91.8 °F 71.6 °F 62% 30.19 in 10.0 mi Calm Calm - N/A   Scattered Clouds
11:14 AM 86.0 °F 91.8 °F 71.6 °F 62% 30.19 in 10.0 mi Calm Calm - N/A   Scattered Clouds
11:34 AM 87.8 °F 92.6 °F 69.8 °F 55% 30.19 in 10.0 mi Calm Calm - N/A   Clear
11:54 AM 87.8 °F 93.8 °F 71.6 °F 58% 30.19 in 10.0 mi Calm Calm - N/A   Scattered Clouds
12:14 PM 89.6 °F 96.2 °F 71.6 °F 55% 30.18 in 10.0 mi North 3.5 mph - N/A   Scattered Clouds
12:34 PM 86.0 °F 91.8 °F 71.6 °F 62% 30.18 in 10.0 mi West 6.9 mph - N/A   Mostly Cloudy
12:54 PM 89.6 °F 94.7 °F 69.8 °F 52% 30.18 in 10.0 mi NW 3.5 mph - N/A   Scattered Clouds
1:14 PM 87.8 °F 93.8 °F 71.6 °F 58% 30.17 in 10.0 mi West 6.9 mph - N/A   Scattered Clouds
1:34 PM 89.6 °F 96.2 °F 71.6 °F 55% 30.17 in 10.0 mi West 4.6 mph - N/A   Scattered Clouds
1:54 PM 89.6 °F 96.2 °F 71.6 °F 55% 30.16 in 10.0 mi WNW 3.5 mph - N/A   Clear
2:14 PM 89.6 °F 94.7 °F 69.8 °F 52% 30.15 in 10.0 mi Calm Calm - N/A   Clear
2:34 PM 89.6 °F 96.2 °F 71.6 °F 55% 30.15 in 10.0 mi West 5.8 mph - N/A   Scattered Clouds
2:54 PM 89.6 °F 94.7 °F 69.8 °F 52% 30.14 in 10.0 mi SW 4.6 mph - N/A   Scattered Clouds
3:14 PM 87.8 °F 93.8 °F 71.6 °F 58% 30.14 in 10.0 mi WNW 3.5 mph - N/A   Mostly Cloudy
3:35 PM 89.6 °F 94.7 °F 69.8 °F 52% 30.13 in 10.0 mi West 4.6 mph - N/A   Scattered Clouds
3:54 PM 89.6 °F 94.7 °F 69.8 °F 52% 30.12 in 10.0 mi West 6.9 mph - N/A Thunderstorm Scattered Clouds
4:14 PM 87.8 °F 91.4 °F 68.0 °F 52% 30.12 in 10.0 mi Calm Calm - N/A   Mostly Cloudy
4:35 PM 89.6 °F 96.2 °F 71.6 °F 55% 30.11 in 10.0 mi West 3.5 mph - N/A   Mostly Cloudy
4:54 PM 89.6 °F 93.4 °F 68.0 °F 49% 30.10 in 10.0 mi Calm Calm - N/A   Scattered Clouds
5:14 PM 89.6 °F 94.7 °F 69.8 °F 52% 30.10 in 10.0 mi West 4.6 mph - N/A   Scattered Clouds
5:35 PM 89.6 °F 94.7 °F 69.8 °F 52% 30.09 in 10.0 mi Calm Calm - N/A   Clear
5:54 PM 87.8 °F 92.6 °F 69.8 °F 55% 30.08 in 10.0 mi South 3.5 mph - N/A   Clear
6:14 PM 87.8 °F 92.6 °F 69.8 °F 55% 30.07 in 10.0 mi South 4.6 mph - N/A   Clear
6:35 PM 86.0 °F 91.8 °F 71.6 °F 62% 30.07 in 10.0 mi SSE 3.5 mph - N/A   Clear
6:54 PM 87.8 °F 93.8 °F 71.6 °F 58% 30.06 in 10.0 mi SSE 4.6 mph - N/A   Clear
7:14 PM 86.0 °F 91.8 °F 71.6 °F 62% 30.06 in 10.0 mi Calm Calm - N/A   Clear
7:35 PM 86.0 °F 90.4 °F 69.8 °F 58% 30.06 in 10.0 mi SW 3.5 mph - N/A   Clear
7:54 PM 86.0 °F 90.4 °F 69.8 °F 58% 30.06 in 10.0 mi SW 3.5 mph - N/A   Clear
8:14 PM 82.4 °F 86.3 °F 69.8 °F 66% 30.06 in 10.0 mi SW 3.5 mph - N/A   Clear
8:35 PM 80.6 °F 85.4 °F 73.4 °F 79% 30.07 in 10.0 mi Calm Calm - N/A   Clear
8:54 PM 78.8 °F - 73.4 °F 83% 30.06 in 10.0 mi Calm Calm - N/A   Clear
9:14 PM 77.0 °F - 71.6 °F 83% 30.06 in 10.0 mi Calm Calm - N/A   Clear
9:35 PM 77.0 °F - 71.6 °F 83% 30.07 in 10.0 mi Calm Calm - N/A   Clear
9:54 PM 77.0 °F - 71.6 °F 83% 30.07 in 10.0 mi Calm Calm - N/A   Clear
10:14 PM 75.2 °F - 71.6 °F 89% 30.07 in 10.0 mi SSW 3.5 mph - N/A   Clear
10:34 PM 77.0 °F - 69.8 °F 78% 30.07 in 10.0 mi SW 4.6 mph - N/A   Clear
10:54 PM 77.0 °F - 69.8 °F 78% 30.08 in 10.0 mi SSW 4.6 mph - N/A   Clear
11:14 PM 77.0 °F - 69.8 °F 78% 30.07 in 10.0 mi SSW 4.6 mph - N/A   Clear
11:34 PM 75.2 °F - 69.8 °F 83% 30.07 in 10.0 mi SW 3.5 mph - N/A   Clear
11:54 PM 73.4 °F - 69.8 °F 88% 30.07 in 10.0 mi Calm Calm - N/A   Clear